Location: Gro�bocka
(50.8204°N, 11.9702°E)
Time: 07:35:36
(UTC+00:00)

Cosmos 1346 Rocket - Pass Details

Date: 29 October 2020
Orbit: 535 x 543 km, 81.2° (Epoch: 01 December)

Event Time Altitude Azimuth Distance (km) Brightness Sun altitude
Rises 17:27:50 0° 347° (NNW) 2,719 6.5 -15.7°
Reaches altitude 10° 17:30:00 10° 347° (NNW) 1,822 5.6 -16.0°
Maximum altitude 17:34:01 89° 271° (W) 551 2.7 -16.6°
Drops below altitude 10° 17:38:01 10° 169° (S) 1,808 5.3 -17.3°
Sets 17:40:09 0° 170° (S) 2,695 6.2 -17.6°
